Погода в Пустотине

Россия / Рязанская область     54°03′39″N   40°18′46″E
темп.,
°C
ветер,
м/с
пор.,
м/с
влажн.,
%
обл.,
%
осадки,
мм/ч
давл.,
гПа
погр.,
м
18 апреля, вс
вс1800:00+9ю3595100 4.9 1018338
03:00+8ююв1193100 9.3 1018137
06:00+7юв1293100 0.3 101946
09:00+10юв117211 0.3 1019750
12:00+12вюв235727 0.1 10191403
15:00+13вюв355499 1.3 10191466
18:00+11вюв2470100 1.9 1019294
21:00+9всв4785100 2.9 1020266
19 апреля, пн
пн1900:00+8всв4891100 0.5 1020351
03:00+7св4992100 0.5 1020314
06:00+6св51091100 0.0 1020462
09:00+6всв61092100 7.4 1020650
12:00+5всв81293100 2.8 1021839
15:00+6в61192100 6.9 10211003
18:00+5всв71293100 5.9 10201008
21:00+5всв71393100 10.3 1021874
20 апреля, вт
вт2000:00+5всв71285100 0.3 1020705
03:00+4в71394100 1.0 1020697
06:00+4в61197100 0.7 1019654
09:00+3в61197100 0.8 1019560
12:00+4в61296100 0.0 1019648
15:00+4в71490100 0.1 1017669
18:00+3в81590100 0.6 1014807
21:00+4в112192100 7.1 1009900
21 апреля, ср
ср2100:00+6вюв102191100 6.4 10051067
03:00+7вюв91891100 7.1 1003798
06:00+9юв81594100 1.3 10011031
09:00+8ююв81490100 2.7 1001892
12:00+4ю101595100 0.3 1003943
15:00+5ююз91484100 0.6 10091171
18:00+6юз61182100 0.1 10131088
21:00+5ю4990100 0.1 1014265
22 апреля, чт
чт2200:00+6ю4990100 0.2 1015276
03:00+4ююз4119236 0.3 1016313
06:00+4ю41091100 0.0 1017350
09:00+9ююз688073 0.0 1018760
12:00+11ююз797036 0.1 10191027
15:00+12ююз6865100 0.4 10191435
18:00+12ююз5107142 0.9 1020683
21:00+9ю4118394 0.9 1020229